EW1587 Weather Reports


time (UTC)temp
C
wind
direction
speed
KPH
gust
KPH
rain 1hr
cm
rain 24hr
cm
rain mn
cm
humidity
%
barometer
mb
20260904112558 20 68 6.4 9.7 0.00 0.00 0.00 100 1008.8
20260904112056 20 65 4.8 11.3 0.00 0.00 0.00 100 1008.9
20260904111553 20 63 4.8 11.3 0.00 0.00 0.00 100 1008.8
20260904111057 20 72 0.0 11.3 0.00 0.00 0.00 100 1008.8
20260904110552 20 67 0.0 11.3 0.00 0.00 0.00 100 1008.8
20260904110053 21 64 6.4 9.7 0.00 0.00 0.00 100 1008.8
20260904105553 21 65 4.8 12.9 0.00 0.00 0.00 100 1008.8
20260904105049 21 107 3.2 12.9 0.00 0.00 0.00 100 1008.6
20260904104548 21 79 3.2 16.1 0.00 0.00 0.00 100 1008.6
20260904104048 21 64 11.3 16.1 0.00 0.00 0.00 100 1008.6
20260904103547 21 90 0.0 11.3 0.00 0.00 0.00 100 1008.3
20260904103047 21 64 9.7 11.3 0.00 0.00 0.00 100 1008.6
20260904102546 21 136 0.0 9.7 0.00 0.00 0.00 100 1008.3
20260904102045 21 120 6.4 11.3 0.00 0.00 0.00 100 1008.5
20260904101544 21 155 0.0 11.3 0.00 0.00 0.00 100 1008.3
20260904101045 21 91 6.4 12.9 0.00 0.00 0.00 100 1008.5
20260904100545 21 194 1.6 12.9 0.00 0.00 0.00 100 1008.4
20260904100047 21 67 3.2 12.9 0.00 0.00 0.00 100 1008.5
20260904095544 21 103 1.6 8.0 0.00 0.00 0.00 100 1008.4
20260904095044 21 94 0.0 9.7 0.00 0.00 0.00 100 1008.4
20260904094543 21 115 1.6 9.7 0.00 0.00 0.00 100 1008.4
20260904094042 21 64 1.6 8.0 0.00 0.00 0.00 100 1008.5
20260904093542 21 111 0.0 4.8 0.00 0.00 0.00 99 1008.5
20260904093040 21 88 1.6 4.8 0.00 0.00 0.00 100 1008.4
20260904092541 21 101 0.0 4.8 0.00 0.00 0.00 100 1008.2
20260904092040 21 117 0.0 11.3 0.00 0.00 0.00 100 1008.2
20260904091541 21 94 8.0 11.3 0.00 0.00 0.00 99 1008.3
20260904091039 21 82 0.0 12.9 0.00 0.00 0.00 100 1008.2
20260904090539 21 156 0.0 16.1 0.00 0.00 0.00 99 1008.1
20260904090039 21 69 12.9 17.7 0.00 0.00 0.00 100 1008.4
20260904085537 21 79 1.6 24.1 0.00 0.00 0.00 100 1008.1
20260904085040 21 127 1.6 24.1 0.00 0.00 0.00 99 1008.0
20260904084537 21 72 16.1 17.7 0.00 0.00 0.00 98 1008.1
20260904084037 21 82 0.0 1.6 0.00 0.00 0.00 99 1007.8
20260904083535 21 136 0.0 0.0 0.00 0.00 0.00 99 1007.7
20260904083037 21 136 0.0 0.0 0.00 0.00 0.00 99 1007.7
20260904082534 21 136 0.0 0.0 0.00 0.00 0.00 99 1007.7
20260904082034 21 136 0.0 1.6 0.00 0.00 0.00 99 1007.7
20260904081544 21 136 0.0 1.6 0.00 0.00 0.00 99 1007.7
20260904081033 22 83 0.0 0.0 0.00 0.00 0.00 98 1007.6
20260904080533 22 84 0.0 1.6 0.00 0.00 0.00 99 1007.7
20260904080033 22 83 0.0 1.6 0.00 0.00 0.00 99 1007.6
20260904075533 22 107 0.0 1.6 0.00 0.00 0.00 99 1007.6
20260904075032 22 115 0.0 0.0 0.00 0.00 0.00 99 1007.6
20260904074533 22 156 0.0 1.6 0.00 0.00 0.00 99 1007.6
20260904074032 22 156 0.0 1.6 0.00 0.00 0.00 99 1007.6
20260904073536 22 236 0.0 1.6 0.00 0.00 0.00 99 1007.7
20260904073030 21 97 0.0 3.2 0.00 0.00 0.00 98 1007.7
20260904072530 21 90 0.0 3.2 0.00 0.00 0.00 98 1007.7
20260904072032 21 56 0.0 1.6 0.00 0.00 0.00 98 1007.7
20260904071531 21 115 0.0 1.6 0.00 0.00 0.00 97 1007.6
20260904071030 22 97 0.0 0.0 0.00 0.00 0.00 97 1007.6
20260904070529 22 97 0.0 0.0 0.00 0.00 0.00 97 1007.7
20260904070030 22 98 0.0 0.0 0.00 0.00 0.00 97 1007.7
20260904065528 22 97 0.0 0.0 0.00 0.00 0.00 97 1007.7
20260904065027 22 89 0.0 1.6 0.00 0.00 0.00 97 1007.8
20260904064527 22 89 0.0 1.6 0.00 0.00 0.00 97 1007.7
20260904064027 22 100 0.0 1.6 0.00 0.00 0.00 97 1007.7
20260904063526 22 100 0.0 1.6 0.00 0.00 0.00 97 1007.7
20260904063025 22 100 0.0 1.6 0.00 0.00 0.00 96 1007.7
20260904062528 22 92 0.0 1.6 0.00 0.00 0.00 96 1007.7
20260904062024 22 94 0.0 1.6 0.00 0.00 0.00 96 1007.7
20260904061538 22 94 0.0 1.6 0.00 0.00 0.00 96 1007.6
20260904061022 22 96 0.0 1.6 0.00 0.00 0.00 95 1007.6
20260904060522 22 117 0.0 0.0 0.00 0.00 0.00 95 1007.6
20260904060022 22 115 0.0 1.6 0.00 0.00 0.00 95 1007.6
20260904055521 22 141 0.0 3.2 0.00 0.00 0.00 95 1007.5
20260904055020 23 181 0.0 3.2 0.00 0.00 0.00 95 1007.5
20260904054522 23 200 0.0 3.2 0.00 0.00 0.00 95 1007.3
20260904054018 22 179 0.0 1.6 0.00 0.00 0.00 95 1007.3
20260904053521 23 242 0.0 1.6 0.00 0.00 0.00 95 1007.3
20260904053014 23 214 0.0 1.6 0.00 0.00 0.00 95 1007.2
20260904052513 23 246 0.0 1.6 0.00 0.00 0.00 94 1007.2
20260904052014 23 243 0.0 1.6 0.00 0.00 0.00 94 1007.3
20260904051510 23 242 0.0 1.6 0.00 0.00 0.00 94 1007.2
20260904051013 23 243 0.0 1.6 0.00 0.00 0.00 94 1007.2
20260904050507 23 238 0.0 1.6 0.00 0.00 0.00 93 1007.2
20260904050006 23 242 0.0 1.6 0.00 0.00 0.00 93 1007.1
20260904045507 23 238 0.0 1.6 0.00 0.00 0.00 93 1007.1
20260904045008 23 245 0.0 1.6 0.00 0.00 0.00 93 1007.1
20260904044508 23 243 0.0 1.6 0.00 0.00 0.00 92 1007.1
20260904044005 23 198 0.0 3.2 0.00 0.00 0.00 92 1007.1
20260904043504 23 242 0.0 3.2 0.00 0.00 0.00 92 1007.2
20260904043004 23 248 0.0 3.2 0.00 0.00 0.00 91 1007.2
20260904042504 23 207 0.0 1.6 0.00 0.00 0.00 91 1007.2
20260904042003 23 271 0.0 6.4 0.00 0.00 0.00 91 1007.1
20260904041504 23 226 0.0 6.4 0.00 0.00 0.00 90 1007.1
20260904041003 23 242 0.0 4.8 0.00 0.00 0.00 90 1007.2
20260904040503 23 145 0.0 1.6 0.00 0.00 0.00 90 1007.2
20260904040003 23 226 0.0 3.2 0.00 0.00 0.00 89 1007.1
20260904035503 23 174 0.0 3.2 0.00 0.00 0.00 89 1007.1
20260904035003 23 233 0.0 3.2 0.00 0.00 0.00 89 1007.1
20260904034503 24 195 0.0 3.2 0.00 0.00 0.00 88 1007.2
20260904034003 24 215 0.0 3.2 0.00 0.00 0.00 88 1007.2
20260904033503 24 277 0.0 6.4 0.00 0.00 0.00 88 1007.2
20260904033002 24 214 0.0 6.4 0.00 0.00 0.00 87 1007.1
20260904032502 24 243 0.0 6.4 0.00 0.00 0.00 87 1007.1
20260904032003 24 238 0.0 6.4 0.00 0.00 0.00 87 1007.1
20260904031502 24 208 0.0 6.4 0.00 0.00 0.00 86 1007.1
20260904031002 25 298 1.6 6.4 0.00 0.00 0.00 86 1007.2
20260904030501 25 158 0.0 6.4 0.00 0.00 0.00 86 1007.2
20260904030005 25 222 0.0 6.4 0.00 0.00 0.00 85 1007.2
20260904025501 25 240 0.0 8.0 0.00 0.00 0.00 85 1007.2
20260904025001 25 274 1.6 9.7 0.00 0.00 0.00 85 1007.2
20260904024601 25 212 1.6 9.7 0.00 0.00 0.00 84 1007.1
20260904024500 25 240 1.6 11.3 0.00 0.00 0.00 84 1007.1
20260904024001 25 249 1.6 11.3 0.00 0.00 0.00 84 1007.1
20260904023600 25 264 1.6 11.3 0.00 0.00 0.00 83 1007.1
20260904023059 25 162 3.2 11.3 0.00 0.00 0.00 83 1007.1
20260904022600 25 169 1.6 11.3 0.00 0.00 0.00 83 1007.0
20260904022058 25 165 1.6 8.0 0.00 0.00 0.00 83 1006.9
20260904021558 25 148 1.6 8.0 0.00 0.00 0.00 83 1007.0
20260904021057 25 225 0.0 8.0 0.00 0.00 0.00 82 1006.8
20260904020559 25 225 1.6 8.0 0.00 0.00 0.00 82 1006.8
20260904020057 25 190 0.0 4.8 0.00 0.00 0.00 81 1006.9
20260904015557 25 109 0.0 4.8 0.00 0.00 0.00 81 1006.9
20260904015055 25 128 0.0 4.8 0.00 0.00 0.00 81 1006.9
20260904014611 25 177 0.0 3.2 0.00 0.00 0.00 80 1006.8
20260904014056 26 99 0.0 3.2 0.00 0.00 0.00 80 1006.8
20260904013553 26 179 0.0 3.2 0.00 0.00 0.00 79 1006.7
20260904013053 26 34 0.0 3.2 0.00 0.00 0.00 79 1006.6
20260904012556 26 120 0.0 4.8 0.00 0.00 0.00 78 1006.7
20260904012052 26 152 0.0 4.8 0.00 0.00 0.00 78 1006.5
20260904011552 26 143 0.0 6.4 0.00 0.00 0.00 78 1006.4
20260904011052 26 174 0.0 6.4 0.00 0.00 0.00 77 1006.3
20260904010552 26 187 0.0 8.0 0.00 0.00 0.00 77 1006.3
20260904010052 26 162 3.2 8.0 0.00 0.00 0.00 76 1006.3
20260904005553 27 174 0.0 6.4 0.00 0.00 0.00 75 1006.3
20260904005051 27 186 1.6 9.7 0.00 0.00 0.00 74 1006.3
20260904004551 27 184 1.6 9.7 0.00 0.00 0.00 73 1006.3
20260904004053 27 238 3.2 8.0 0.00 0.00 0.00 72 1006.3
20260904003552 27 224 1.6 6.4 0.00 0.00 0.00 71 1006.3
20260904003050 28 248 0.0 12.9 0.00 0.00 0.00 70 1006.2
20260904002553 28 244 1.6 12.9 0.00 0.00 0.00 69 1006.2
20260904002051 28 143 0.0 11.3 0.00 0.00 0.00 69 1006.2
20260904001550 28 170 1.6 9.7 0.00 0.00 0.00 69 1006.2
20260904001050 28 215 0.0 12.9 0.00 0.00 0.00 69 1006.2
20260904000553 28 240 3.2 16.1 0.00 0.00 0.00 69 1006.3
20260904000051 28 223 4.8 16.1 0.00 0.00 0.00 70 1006.3
20260903235553 28 283 3.2 12.9 0.00 0.00 0.00 70 1006.4
20260903235049 28 222 1.6 8.0 0.00 0.00 0.00 70 1006.4
20260903234550 28 252 1.6 6.4 0.00 0.00 0.00 70 1006.5
20260903234050 28 141 0.0 4.8 0.00 0.00 0.00 70 1006.5
20260903233550 28 193 0.0 4.8 0.00 0.00 0.00 70 1006.6
20260903233050 28 225 0.0 4.8 0.00 0.00 0.00 69 1006.6
20260903232550 28 248 0.0 4.8 0.00 0.00 0.00 68 1006.6
20260903232052 28 214 1.6 8.0 0.00 0.00 0.00 67 1006.5
20260903231555 29 248 0.0 12.9 0.00 0.00 0.00 67 1006.4
20260903231048 28 264 4.8 12.9 0.00 0.00 0.00 67 1006.3
20260903230548 29 179 3.2 11.3 0.00 0.00 0.00 68 1006.2
20260903230051 29 170 1.6 14.5 0.00 0.00 0.00 68 1006.0
20260903225548 29 195 3.2 14.5 0.00 0.00 0.00 68 1005.9
20260903225049 29 252 1.6 12.9 0.00 0.00 0.00 69 1005.6
20260903224548 29 174 1.6 12.9 0.00 0.00 0.00 69 1005.6
20260903224048 29 210 1.6 14.5 0.00 0.00 0.00 68 1005.6
20260903223548 29 257 3.2 14.5 0.00 0.00 0.00 68 1005.6
20260903223048 29 198 3.2 19.3 0.00 0.00 0.00 67 1005.4
20260903222550 30 167 6.4 20.9 0.00 0.00 0.00 66 1005.5
20260903222047 30 166 9.7 19.3 0.00 0.00 0.00 66 1005.2
20260903221546 29 193 4.8 17.7 0.00 0.00 0.00 68 1005.5
20260903221044 29 78 1.6 17.7 0.00 0.00 0.00 69 1005.6
20260903220544 28 244 3.2 20.9 0.00 0.00 0.00 69 1005.8
20260903220048 28 200 6.4 20.9 0.00 0.00 0.00 68 1005.9
20260903215545 29 159 4.8 22.5 0.00 0.00 0.00 68 1005.8
20260903215043 28 277 3.2 22.5 0.00 0.00 0.00 68 1006.0
20260903214545 28 225 3.2 14.5 0.00 0.00 0.00 69 1006.0
20260903214042 28 185 6.4 17.7 0.00 0.00 0.00 69 1005.9
20260903213542 28 160 6.4 17.7 0.00 0.00 0.00 69 1006.0
20260903213042 28 195 4.8 22.5 0.00 0.00 0.00 68 1006.1
20260903212541 28 290 4.8 22.5 0.00 0.00 0.00 67 1006.0
20260903212041 29 181 1.6 9.7 0.00 0.00 0.00 67 1006.1
20260903211541 29 267 3.2 9.7 0.00 0.00 0.00 66 1006.1
20260903211041 30 264 1.6 11.3 0.00 0.00 0.00 67 1006.1
20260903210541 30 248 4.8 16.1 0.00 0.00 0.00 65 1006.2
20260903210044 30 270 8.0 19.3 0.00 0.00 0.00 66 1006.0
20260903205541 30 231 4.8 20.9 0.00 0.00 0.00 68 1006.0
20260903205040 29 245 8.0 20.9 0.00 0.00 0.00 67 1006.0
20260903204540 28 315 4.8 22.5 0.00 0.00 0.00 69 1006.2
20260903204043 28 267 9.7 22.5 0.00 0.00 0.00 69 1006.1
20260903203540 28 260 8.0 17.7 0.00 0.00 0.00 69 1006.1
20260903203039 28 264 6.4 19.3 0.00 0.00 0.00 67 1006.1
20260903202541 28 282 6.4 20.9 0.00 0.00 0.00 67 1006.1
20260903202039 28 222 8.0 20.9 0.00 0.00 0.00 67 1006.1
20260903201539 28 243 3.2 19.3 0.00 0.00 0.00 68 1006.2
20260903201041 28 200 6.4 19.3 0.00 0.00 0.00 67 1006.3
20260903200538 29 85 8.0 19.3 0.00 0.00 0.00 66 1006.1
20260903200037 29 160 8.0 17.7 0.00 0.00 0.00 65 1006.2
20260903195539 30 60 4.8 14.5 0.00 0.00 0.00 64 1006.3
20260903195036 30 226 4.8 12.9 0.00 0.00 0.00 65 1006.3
20260903194534 30 290 3.2 20.9 0.00 0.00 0.00 65 1006.4
20260903194036 30 190 9.7 20.9 0.00 0.00 0.00 64 1006.6
20260903193533 30 211 6.4 20.9 0.00 0.00 0.00 65 1006.7
20260903193032 30 148 9.7 19.3 0.00 0.00 0.00 64 1006.9
20260903192532 29 303 3.2 17.7 0.00 0.00 0.00 66 1006.7
20260903192035 28 176 6.4 17.7 0.00 0.00 0.00 66 1006.6
20260903191546 28 197 6.4 16.1 0.00 0.00 0.00 66 1006.8
20260903191033 28 204 1.6 14.5 0.00 0.00 0.00 67 1006.8
20260903190531 28 255 3.2 14.5 0.00 0.00 0.00 67 1007.0
20260903190031 28 261 4.8 14.5 0.00 0.00 0.00 67 1007.0
20260903185530 28 284 3.2 19.3 0.00 0.00 0.00 67 1006.9
20260903185033 28 269 6.4 19.3 0.00 0.00 0.00 67 1007.0
20260903184541 28 222 3.2 11.3 0.00 0.00 0.00 66 1007.0
20260903184032 28 219 4.8 12.9 0.00 0.00 0.00 65 1007.2
20260903183528 28 255 3.2 16.1 0.00 0.00 0.00 65 1007.4
20260903183028 29 267 6.4 17.7 0.00 0.00 0.00 64 1007.5
20260903182529 29 307 4.8 20.9 0.00 0.00 0.00 64 1007.5
20260903182027 29 260 8.0 20.9 0.00 0.00 0.00 62 1007.5
20260903181527 30 212 8.0 17.7 0.00 0.00 0.00 61 1007.5
20260903181027 30 188 8.0 24.1 0.00 0.00 0.00 62 1007.5
20260903180527 30 217 6.4 14.5 0.00 0.00 0.00 65 1007.3
20260903180032 29 284 3.2 14.5 0.00 0.00 0.00 65 1007.4
20260903175524 29 153 1.6 11.3 0.00 0.00 0.00 66 1007.5
20260903175023 28 214 3.2 12.9 0.00 0.00 0.00 66 1007.5
20260903174522 28 252 3.2 12.9 0.00 0.00 0.00 66 1007.7
20260903174022 28 186 6.4 17.7 0.00 0.00 0.00 66 1007.8
20260903173521 28 156 3.2 17.7 0.00 0.00 0.00 68 1007.8
20260903173022 28 160 6.4 19.3 0.00 0.00 0.00 67 1007.9
20260903172522 27 245 4.8 12.9 0.00 0.00 0.00 67 1007.9
20260903172020 27 231 6.4 12.9 0.00 0.00 0.00 66 1008.0
20260903171521 28 181 3.2 12.9 0.00 0.00 0.00 66 1008.0
20260903171019 28 134 3.2 22.5 0.00 0.00 0.00 65 1007.9
20260903170519 28 236 8.0 22.5 0.00 0.00 0.00 62 1008.0
20260903170020 28 200 3.2 16.1 0.00 0.00 0.00 63 1008.1
20260903165518 28 263 4.8 16.1 0.00 0.00 0.00 62 1008.2
20260903165019 29 211 1.6 16.1 0.00 0.00 0.00 61 1008.1
20260903164517 29 239 3.2 14.5 0.00 0.00 0.00 62 1008.2
20260903164017 29 191 4.8 14.5 0.00 0.00 0.00 62 1008.2
20260903163516 29 184 1.6 14.5 0.00 0.00 0.00 61 1008.3
20260903163016 29 236 3.2 11.3 0.00 0.00 0.00 61 1008.3
20260903162515 28 243 4.8 11.3 0.00 0.00 0.00 63 1008.3
20260903162013 28 193 3.2 17.7 0.00 0.00 0.00 63 1008.2
20260903161512 28 252 3.2 17.7 0.00 0.00 0.00 64 1008.3
20260903161011 28 240 3.2 16.1 0.00 0.00 0.00 66 1008.3
20260903160510 28 246 1.6 12.9 0.00 0.00 0.00 69 1008.3
20260903160013 27 92 3.2 12.9 0.00 0.00 0.00 70 1008.4
20260903155510 27 163 1.6 12.9 0.00 0.00 0.00 71 1008.5
20260903155006 27 176 1.6 17.7 0.00 0.00 0.00 72 1008.5
20260903154506 27 187 6.4 17.7 0.00 0.00 0.00 70 1008.4
20260903154004 27 235 1.6 16.1 0.00 0.00 0.00 73 1008.4
20260903153502 26 232 4.8 16.1 0.00 0.00 0.00 73 1008.5
20260903153101 26 97 6.4 11.3 0.00 0.00 0.00 74 1008.5
20260903152600 26 143 3.2 11.3 0.00 0.00 0.00 75 1008.4
20260903152102 26 194 3.2 9.7 0.00 0.00 0.00 76 1008.4
20260903151558 26 136 1.6 14.5 0.00 0.00 0.00 78 1008.5
20260903151056 26 311 6.4 14.5 0.00 0.00 0.00 77 1008.4
20260903150556 26 231 4.8 11.3 0.00 0.00 0.00 79 1008.4
20260903150055 26 100 3.2 11.3 0.00 0.00 0.00 80 1008.5
20260903145554 25 75 3.2 11.3 0.00 0.00 0.00 81 1008.5
20260903145053 25 174 0.0 9.7 0.00 0.00 0.00 84 1008.4
20260903144552 24 117 3.2 11.3 0.00 0.00 0.00 84 1008.3
20260903144052 24 87 3.2 11.3 0.00 0.00 0.00 85 1008.4
20260903143548 23 111 4.8 11.3 0.00 0.00 0.00 85 1008.5
20260903143105 23 81 3.2 9.7 0.00 0.00 0.00 86 1008.4
20260903142546 23 124 3.2 11.3 0.00 0.00 0.00 87 1008.4
20260903142045 23 113 6.4 11.3 0.00 0.00 0.00 87 1008.5
20260903141544 23 89 0.0 11.3 0.00 0.00 0.00 89 1008.7
20260903141045 22 97 3.2 11.3 0.00 0.00 0.00 90 1008.7
20260903140541 22 103 3.2 8.0 0.00 0.00 0.00 91 1008.7
20260903140039 22 75 1.6 8.0 0.00 0.00 0.00 92 1008.8
20260903135539 22 91 3.2 8.0 0.00 0.00 0.00 92 1008.9
20260903135038 22 89 3.2 8.0 0.00 0.00 0.00 92 1009.0
20260903134537 21 90 1.6 8.0 0.00 0.00 0.00 92 1009.0
20260903134038 21 117 4.8 8.0 0.00 0.00 0.00 92 1009.1
20260903133537 21 97 3.2 6.4 0.00 0.00 0.00 92 1009.3
20260903133036 21 86 3.2 6.4 0.00 0.00 0.00 93 1009.2
20260903132535 21 103 1.6 6.4 0.00 0.00 0.00 94 1009.1
20260903132035 21 88 3.2 6.4 0.00 0.00 0.00 93 1008.9
20260903131538 21 94 3.2 6.4 0.00 0.00 0.00 94 1008.9
20260903131036 21 94 3.2 6.4 0.00 0.00 0.00 96 1008.9
20260903130538 20 79 3.2 6.4 0.00 0.00 0.00 96 1008.8
20260903130035 20 89 3.2 6.4 0.00 0.00 0.00 97 1008.8
20260903125535 20 81 1.6 9.7 0.00 0.00 0.00 97 1008.7
20260903125034 20 81 3.2 8.0 0.00 0.00 0.00 97 1008.8
20260903124539 20 96 4.8 12.9 0.00 0.00 0.00 97 1009.0
20260903124034 20 96 4.8 12.9 0.00 0.00 0.00 97 1009.0
20260903123535 19 85 3.2 8.0 0.00 0.00 0.00 97 1008.9
20260903123039 19 100 1.6 6.4 0.00 0.00 0.00 97 1008.9
20260903122534 19 65 3.2 6.4 0.00 0.00 0.00 97 1008.8
20260903122034 19 65 1.6 6.4 0.00 0.00 0.00 97 1008.8
20260903121535 19 91 1.6 8.0 0.00 0.00 0.00 97 1008.7
20260903121034 19 81 3.2 8.0 0.00 0.00 0.00 97 1008.8
20260903120536 19 101 3.2 6.4 0.00 0.00 0.00 97 1008.8
20260903120035 19 92 3.2 6.4 0.00 0.00 0.00 96 1008.8
20260903115534 19 86 3.2 8.0 0.00 0.00 0.00 96 1008.9
20260903115035 19 79 3.2 9.7 0.00 0.00 0.00 96 1008.8
20260903114533 19 82 1.6 9.7 0.00 0.00 0.00 96 1008.8
20260903114034 19 86 3.2 8.0 0.00 0.00 0.00 96 1009.0
20260903113532 19 91 3.2 8.0 0.00 0.00 0.00 96 1008.8
20260903113040 19 97 3.2 8.0 0.00 0.00 0.00 97 1008.7